Time,TemperatureF,DewpointF,PressureIn,WindDirection,WindDirectionDegrees,WindSpeedMPH,WindSpeedGustMPH,Humidity,HourlyPrecipIn,Conditions,Clouds,dailyrainin,SoftwareType,DateUTC
2013-09-07 00:13:00,77.0,63.0,29.96,ESE,121,1.0,4.0,63,0.00,,,0.00,,2013-09-07 05:13:00,
2013-09-07 00:23:00,77.0,63.0,29.96,ESE,121,1.0,4.0,63,0.00,,,0.00,,2013-09-07 05:23:00,
2013-09-07 00:52:00,76.0,63.0,29.97,ESE,120,1.0,4.0,64,0.00,,,0.00,,2013-09-07 05:52:00,
2013-09-07 01:13:00,76.0,63.0,29.96,ESE,118,2.0,4.0,65,0.00,,,0.00,,2013-09-07 06:13:00,
2013-09-07 01:22:00,76.0,63.0,29.96,ESE,118,2.0,4.0,65,0.00,,,0.00,,2013-09-07 06:22:00,
2013-09-07 01:52:00,75.0,62.0,29.96,SE,135,1.0,3.0,65,0.00,,,0.00,,2013-09-07 06:52:00,
2013-09-07 02:12:00,75.0,63.0,29.96,SE,128,1.0,1.0,66,0.00,,,0.00,,2013-09-07 07:12:00,
2013-09-07 02:22:00,75.0,63.0,29.96,SE,128,1.0,1.0,66,0.00,,,0.00,,2013-09-07 07:22:00,
2013-09-07 02:52:00,74.0,63.0,29.96,SE,128,1.0,1.0,68,0.00,,,0.00,,2013-09-07 07:52:00,
2013-09-07 03:12:00,74.0,64.0,29.96,North,360,0.0,1.0,70,0.00,,,0.00,,2013-09-07 08:12:00,
2013-09-07 03:22:00,74.0,64.0,29.96,North,360,0.0,1.0,70,0.00,,,0.00,,2013-09-07 08:22:00,
2013-09-07 03:53:00,73.0,63.0,29.95,SE,128,2.0,2.0,71,0.00,,,0.00,,2013-09-07 08:53:00,
2013-09-07 04:12:00,74.0,64.0,29.96,SE,124,2.0,3.0,70,0.00,,,0.00,,2013-09-07 09:12:00,
2013-09-07 04:21:00,74.0,64.0,29.96,SE,124,2.0,3.0,70,0.00,,,0.00,,2013-09-07 09:21:00,
2013-09-07 04:52:00,74.0,64.0,29.96,SW,222,1.0,4.0,70,0.00,,,0.00,,2013-09-07 09:52:00,
2013-09-07 05:11:00,74.0,64.0,29.96,ESE,120,1.0,2.0,70,0.00,,,0.00,,2013-09-07 10:11:00,
2013-09-07 05:21:00,74.0,64.0,29.96,ESE,120,1.0,2.0,70,0.00,,,0.00,,2013-09-07 10:21:00,
2013-09-07 05:52:00,74.0,63.0,29.96,SSW,204,2.0,2.0,69,0.00,,,0.00,,2013-09-07 10:52:00,
2013-09-07 06:13:00,73.0,63.0,29.96,SSE,151,2.0,3.0,70,0.00,,,0.00,,2013-09-07 11:13:00,
2013-09-07 06:23:00,73.0,63.0,29.96,SSE,151,2.0,3.0,70,0.00,,,0.00,,2013-09-07 11:23:00,
2013-09-07 06:52:00,73.0,63.0,29.96,ESE,109,1.0,2.0,72,0.00,,,0.00,,2013-09-07 11:52:00,
2013-09-07 07:12:00,73.0,64.0,29.97,ESE,109,1.0,2.0,73,0.00,,,0.00,,2013-09-07 12:12:00,
2013-09-07 07:22:00,73.0,64.0,29.97,ESE,109,1.0,2.0,73,0.00,,,0.00,,2013-09-07 12:22:00,
2013-09-07 07:52:00,73.0,64.0,29.96,ESE,111,2.0,2.0,74,0.00,,,0.00,,2013-09-07 12:52:00,
2013-09-07 08:21:00,73.0,63.0,29.97,SSW,205,1.0,1.0,72,0.00,,,0.00,,2013-09-07 13:21:00,
2013-09-07 08:52:00,74.0,65.0,29.98,South,182,0.0,1.0,73,0.00,,,0.00,,2013-09-07 13:52:00,
2013-09-07 09:02:00,74.0,65.0,29.98,South,182,0.0,1.0,73,0.00,,,0.00,,2013-09-07 14:02:00,
2013-09-07 09:22:00,74.0,64.0,29.97,North,360,0.0,0.0,72,0.00,,,0.00,,2013-09-07 14:22:00,
2013-09-07 09:32:00,74.0,64.0,29.97,North,360,0.0,0.0,72,0.00,,,0.00,,2013-09-07 14:32:00,
2013-09-07 09:52:00,77.0,66.0,29.97,NE,44,1.0,4.0,68,0.00,,,0.00,,2013-09-07 14:52:00,
2013-09-07 10:02:00,77.0,66.0,29.97,NE,44,1.0,4.0,68,0.00,,,0.00,,2013-09-07 15:02:00,
2013-09-07 10:23:00,77.0,65.0,29.96,SE,141,3.0,7.0,67,0.00,,,0.00,,2013-09-07 15:23:00,
2013-09-07 10:34:00,77.0,65.0,29.96,SE,141,3.0,7.0,67,0.00,,,0.00,,2013-09-07 15:34:00,
2013-09-07 10:53:00,77.0,65.0,29.96,SE,141,3.0,7.0,67,0.00,,,0.00,,2013-09-07 15:53:00,
2013-09-07 11:24:00,86.0,68.0,29.97,SSE,152,2.0,2.0,55,0.00,,,0.00,,2013-09-07 16:24:00,
2013-09-07 11:53:00,86.0,69.0,29.96,SE,146,3.0,5.0,57,0.00,,,0.00,,2013-09-07 16:53:00,
2013-09-07 12:12:00,88.0,68.0,29.96,SSW,192,2.0,3.0,51,0.00,,,0.00,,2013-09-07 17:12:00,
2013-09-07 12:24:00,88.0,68.0,29.96,SSW,192,2.0,3.0,51,0.00,,,0.00,,2013-09-07 17:24:00,
2013-09-07 12:52:00,89.0,70.0,29.95,ESE,117,4.0,4.0,53,0.00,,,0.00,,2013-09-07 17:52:00,
2013-09-07 13:13:00,91.0,70.0,29.94,SSW,211,1.0,2.0,50,0.00,,,0.00,,2013-09-07 18:13:00,
2013-09-07 13:22:00,91.0,70.0,29.94,SSW,211,1.0,2.0,50,0.00,,,0.00,,2013-09-07 18:22:00,
2013-09-07 13:52:00,92.0,69.0,29.93,SE,132,2.0,3.0,47,0.00,,,0.00,,2013-09-07 18:52:00,
2013-09-07 14:11:00,92.0,69.0,29.92,SSW,203,1.0,5.0,48,0.00,,,0.00,,2013-09-07 19:11:00,
2013-09-07 14:22:00,92.0,69.0,29.92,SSW,203,1.0,5.0,48,0.00,,,0.00,,2013-09-07 19:22:00,
2013-09-07 14:52:00,93.0,69.0,29.92,ESE,107,1.0,1.0,46,0.00,,,0.00,,2013-09-07 19:52:00,
2013-09-07 15:02:00,93.0,69.0,29.92,ESE,107,1.0,1.0,46,0.00,,,0.00,,2013-09-07 20:02:00,
2013-09-07 15:22:00,93.0,69.0,29.92,ESE,107,1.0,5.0,46,0.00,,,0.00,,2013-09-07 20:22:00,
2013-09-07 15:32:00,93.0,69.0,29.92,ESE,107,1.0,5.0,46,0.00,,,0.00,,2013-09-07 20:32:00,
2013-09-07 15:53:00,93.0,69.0,29.92,ESE,107,1.0,1.0,46,0.00,,,0.00,,2013-09-07 20:53:00,
2013-09-07 16:02:00,93.0,69.0,29.92,ESE,107,1.0,1.0,46,0.00,,,0.00,,2013-09-07 21:02:00,
2013-09-07 16:22:00,93.0,69.0,29.92,ESE,107,1.0,1.0,46,0.00,,,0.00,,2013-09-07 21:22:00,
2013-09-07 16:34:00,93.0,69.0,29.92,ESE,107,1.0,1.0,46,0.00,,,0.00,,2013-09-07 21:34:00,
2013-09-07 16:54:00,93.0,69.0,29.92,ESE,107,1.0,1.0,46,0.00,,,0.00,,2013-09-07 21:54:00,
2013-09-07 17:04:00,93.0,69.0,29.92,ESE,107,1.0,1.0,46,0.00,,,0.00,,2013-09-07 22:04:00,
2013-09-07 17:24:00,93.0,69.0,29.92,ESE,107,1.0,1.0,46,0.00,,,0.00,,2013-09-07 22:24:00,
2013-09-07 17:33:00,93.0,69.0,29.92,ESE,107,1.0,1.0,46,0.00,,,0.00,,2013-09-07 22:33:00,
2013-09-07 17:53:00,93.0,69.0,29.92,ESE,107,1.0,5.0,46,0.00,,,0.00,,2013-09-07 22:53:00,
2013-09-07 18:00:00,93.0,69.0,29.92,ESE,107,1.0,1.0,46,0.00,,,0.00,,2013-09-07 23:00:00,
2013-09-07 18:03:00,93.0,69.0,29.92,ESE,107,1.0,5.0,46,0.00,,,0.00,,2013-09-07 23:03:00,
2013-09-07 18:23:00,93.0,69.0,29.92,ESE,107,1.0,1.0,46,0.00,,,0.00,,2013-09-07 23:23:00,
2013-09-07 18:34:00,93.0,69.0,29.92,ESE,107,1.0,1.0,46,0.00,,,0.00,,2013-09-07 23:34:00,
2013-09-07 18:42:00,93.0,69.0,29.92,ESE,107,1.0,1.0,46,0.00,,,0.00,,2013-09-07 23:42:00,
2013-09-07 18:53:00,93.0,69.0,29.92,ESE,107,1.0,1.0,46,0.00,,,0.00,,2013-09-07 23:53:00,
2013-09-07 20:11:00,93.0,69.0,29.92,ESE,107,1.0,1.0,46,0.00,,,0.00,,2013-09-08 01:11:00,
2013-09-07 20:22:00,93.0,69.0,29.92,ESE,107,1.0,1.0,46,0.00,,,0.00,,2013-09-08 01:22:00,
2013-09-07 20:52:00,93.0,69.0,29.92,ESE,107,1.0,1.0,46,0.00,,,0.00,,2013-09-08 01:52:00,
2013-09-07 21:11:00,93.0,69.0,29.92,ESE,107,1.0,1.0,46,0.00,,,0.00,,2013-09-08 02:11:00,
2013-09-07 21:23:00,93.0,69.0,29.92,ESE,107,1.0,1.0,46,0.00,,,0.00,,2013-09-08 02:23:00,
2013-09-07 21:52:00,93.0,69.0,29.92,ESE,107,1.0,1.0,46,0.00,,,0.00,,2013-09-08 02:52:00,
2013-09-07 23:02:00,-999.0,-99.9,29.92,ESE,107,1.0,1.0,-999,-99.99,,,-99.99,,2013-09-08 04:02:00,